Regional Weather Roundup
Issued by NWS Newport/Morehead, NC

Current Version | Previous Version | Text Only | Print | Product List | Glossary Off
Versions: 1 2 3 4 5 6 7 8 9 10 11 12 13 14 15 16 17 18 19 20 21 22 23 24 25 26 27 28 29 30 31 32 33 34 35 36 37 38 39 40 41 42 43 44 45 46 47 48 49 50
000 ASUS42 KMHX 290213 RWRMHX WEATHER ROUNDUP FOR EASTERN NORTH CAROLINA NATIONAL WEATHER SERVICE NEWPORT/MOREHEAD CITY NC 1000 PM EDT SAT MAY 28 2016 NOTE: "FAIR" INDICATES FEW OR NO CLOUDS BELOW 12,000 FEET WITH NO SIGNIFICANT WEATHER AND/OR OBSTRUCTIONS TO VISIBILITY NCZ015>017-031-032-045>047-102-103-290300- NORTH COAST CITY SKY/WX TMP DP RH WIND PRES REMARKS EDENTON PTCLDY 72 67 83 E5 30.16R ELIZABETH CITY PTCLDY 72 67 84 NE3 30.16R KITTY HAWK CLEAR 71 67 89 E3 30.14S MANTEO NOT AVBL $$ NCZ045>047-081-094-103-104-290300- CENTRAL COAST CITY SKY/WX TMP DP RH WIND PRES REMARKS FRISCO PTCLDY 74 71 91 E5 30.14R $$ NCZ095-097-098-100-101-290300- SOUTHERN COAST CITY SKY/WX TMP DP RH WIND PRES REMARKS BEAUFORT CLEAR 76 71 85 E6 30.12S CEDAR ISLAND NOT AVBL JACKSONVILLE MOCLDY 76 69 79 E10 30.11R PINEY ISLAND PTCLDY N/A N/A N/A E7 30.12S WILMINGTON CLOUDY 75 70 84 E9 30.10R $$ NCZ011>013-027>030-043-044-078>080-089-090>093-098-290300- COASTAL PLAIN CITY SKY/WX TMP DP RH WIND PRES REMARKS AHOSKIE MOCLDY 72 63 72 E3 30.16R CLINTON PTCLDY 73 67 81 CALM 30.11S ELIZABETHTOWN CLOUDY 72 70 94 CALM 30.11R GOLDSBORO NOT AVBL GREENVILLE PTCLDY 75 70 83 SE6 30.16R HAVELOCK MOCLDY 75 70 84 E7 30.13S KENANSVILLE CLOUDY 72 64 75 CALM 30.13R KINSTON NOT AVBL NEW BERN CLEAR 74 69 85 NE6 30.14R RICHLANDS PTCLDY 71 68 90 NE5 30.12S ROCKY MOUNT PTCLDY 75 65 70 E3 30.14R WASHINGTON PTCLDY 73 68 87 E3 30.14S WHITEVILLE CLOUDY 73 66 80 CALM 30.10R $$ AMZ130-135-150-152-154-156-158-170-250-252-270-ANZ085-086-088-633-658-670-290300- MARINE OBSERVATIONS STATION/POSITION TIME TEMP WIND PRES WAVE SWELL AIR SEA DIR/SP/G HT/PER HT/PER (UTC) (F) (DEG/KT/KT) (MB) (FT/S) (FT/S) CHESAPEAKE LIGHT 0200 72 90/ 10/ 10 1022.2 64 E VA BEACH 0150 69 67 70/ 4/ 6 1021.5 4/ 8 3/ 8 DUCK 0100 1020.1 2 E DUCK 0111 67 N/A 3/ 7 OREGON INLET 0100 1020.5 13E OREGON INLT 0100 71 N/A 3/ 8 3/ 8 HATTERAS CG 0100 1019.7 DIAMOND BUOY 0150 78 78 130/ 14/ 16 1020.2 4/ 8 3/ 8 CAPE LOOKOUT 0200 75 80/ 8/ 9 1019.4 BEAUFORT LAB 0100 1019.1 30 SE NEW RVR IN 0125 75 N/A 5/ 7 27 SE WRIGHTSVLE 0108 76 74 80/ 12/ 16 1018.1 5 SE WRIGHTSVLE 0108 75 74 90/ 12/ 17 1019.3 225 S CAPE HAT 0150 75 76 120/ 16/ 19 1018.6 5/ 7 41 SE CHARLESTON 0150 77 78 100/ 16/ 21 1014.9 8/ 8 5/ 8 $$

USA.gov is the U.S. government's official web portal to all federal, state and local government web resources and services.